| time (UTC) | temp F | wind direction | speed MPH | gust MPH | rain 1hr in | rain 24hr in | rain mn in | humidity % | barometer mb |
| 20260506154533 | 55 | 142 | 0.0 | 4.0 | 0.00 | 0.01 | 0.00 | 87 | 1021.4 |
| 20260506154031 | 54 | 142 | 0.0 | 4.0 | 0.00 | 0.01 | 0.00 | 87 | 1021.5 |
| 20260506153530 | 54 | 146 | 0.0 | 2.0 | 0.00 | 0.01 | 0.00 | 87 | 1021.5 |
| 20260506153040 | 54 | 146 | 0.0 | 2.0 | 0.00 | 0.01 | 0.00 | 87 | 1021.4 |
| 20260506152529 | 54 | 147 | 0.0 | 2.0 | 0.00 | 0.01 | 0.00 | 87 | 1021.4 |
| 20260506152031 | 54 | 146 | 0.0 | 3.0 | 0.00 | 0.01 | 0.00 | 87 | 1021.4 |
| 20260506151529 | 54 | 140 | 0.0 | 3.0 | 0.00 | 0.01 | 0.00 | 87 | 1021.4 |
| 20260506151030 | 54 | 138 | 0.0 | 2.0 | 0.00 | 0.01 | 0.00 | 88 | 1021.4 |
| 20260506150528 | 53 | 152 | 0.0 | 0.0 | 0.00 | 0.01 | 0.00 | 89 | 1021.4 |
| 20260506150027 | 53 | 152 | 0.0 | 0.0 | 0.00 | 0.01 | 0.00 | 89 | 1021.4 |
| 20260506145529 | 53 | 152 | 0.0 | 0.0 | 0.00 | 0.01 | 0.00 | 90 | 1021.4 |
| 20260506145025 | 52 | 153 | 0.0 | 0.0 | 0.00 | 0.01 | 0.00 | 91 | 1021.4 |
| 20260506144536 | 52 | 152 | 0.0 | 0.0 | 0.00 | 0.01 | 0.00 | 92 | 1021.3 |
| 20260506144021 | 52 | 152 | 0.0 | 0.0 | 0.00 | 0.01 | 0.00 | 92 | 1021.3 |
| 20260506143521 | 52 | 153 | 0.0 | 0.0 | 0.00 | 0.01 | 0.00 | 92 | 1021.2 |
| 20260506143019 | 52 | 153 | 0.0 | 0.0 | 0.00 | 0.01 | 0.00 | 92 | 1021.1 |
| 20260506142517 | 51 | 360 | 0.0 | 0.0 | 0.00 | 0.01 | 0.00 | 92 | 1021.2 |
| 20260506142016 | 51 | 171 | 0.0 | 0.0 | 0.00 | 0.01 | 0.00 | 92 | 1021.2 |
| 20260506141515 | 51 | 160 | 0.0 | 0.0 | 0.00 | 0.01 | 0.00 | 92 | 1021.0 |
| 20260506141019 | 51 | 150 | 0.0 | 0.0 | 0.00 | 0.01 | 0.00 | 92 | 1020.9 |
| 20260506140515 | 51 | 150 | 0.0 | 0.0 | 0.00 | 0.01 | 0.00 | 93 | 1021.0 |
| 20260506140014 | 51 | 149 | 0.0 | 0.0 | 0.00 | 0.01 | 0.00 | 92 | 1020.8 |
| 20260506135512 | 51 | 149 | 0.0 | 0.0 | 0.00 | 0.01 | 0.00 | 92 | 1020.7 |
| 20260506135016 | 51 | 149 | 0.0 | 0.0 | 0.00 | 0.01 | 0.00 | 92 | 1020.7 |
| 20260506134511 | 51 | 149 | 0.0 | 0.0 | 0.00 | 0.01 | 0.00 | 92 | 1020.7 |
| 20260506134010 | 51 | 149 | 0.0 | 0.0 | 0.00 | 0.01 | 0.00 | 92 | 1020.6 |
| 20260506133509 | 51 | 149 | 0.0 | 0.0 | 0.00 | 0.01 | 0.00 | 92 | 1020.6 |
| 20260506133008 | 51 | 149 | 0.0 | 0.0 | 0.00 | 0.01 | 0.00 | 92 | 1020.6 |
| 20260506132510 | 51 | 149 | 0.0 | 0.0 | 0.00 | 0.01 | 0.00 | 91 | 1020.6 |
| 20260506132007 | 51 | 149 | 0.0 | 0.0 | 0.00 | 0.01 | 0.00 | 91 | 1020.6 |
| 20260506131508 | 51 | 149 | 0.0 | 0.0 | 0.00 | 0.01 | 0.00 | 91 | 1020.6 |
| 20260506131007 | 51 | 149 | 0.0 | 0.0 | 0.00 | 0.01 | 0.00 | 91 | 1020.5 |
| 20260506130506 | 51 | 149 | 0.0 | 0.0 | 0.00 | 0.01 | 0.00 | 91 | 1020.6 |
| 20260506130006 | 51 | 149 | 0.0 | 0.0 | 0.00 | 0.01 | 0.00 | 91 | 1020.5 |
| 20260506125505 | 51 | 149 | 0.0 | 0.0 | 0.00 | 0.01 | 0.00 | 91 | 1020.4 |
| 20260506125004 | 51 | 149 | 0.0 | 0.0 | 0.00 | 0.01 | 0.00 | 91 | 1020.5 |
| 20260506124504 | 51 | 149 | 0.0 | 0.0 | 0.00 | 0.01 | 0.00 | 91 | 1020.4 |
| 20260506124003 | 51 | 149 | 0.0 | 0.0 | 0.00 | 0.01 | 0.00 | 91 | 1020.3 |
| 20260506123503 | 51 | 149 | 0.0 | 0.0 | 0.00 | 0.01 | 0.00 | 91 | 1020.4 |
| 20260506123003 | 51 | 149 | 0.0 | 0.0 | 0.00 | 0.01 | 0.00 | 91 | 1020.3 |
| 20260506122502 | 51 | 149 | 0.0 | 0.0 | 0.00 | 0.01 | 0.00 | 91 | 1020.4 |
| 20260506122001 | 51 | 149 | 0.0 | 0.0 | 0.00 | 0.01 | 0.00 | 91 | 1020.4 |
| 20260506121602 | 51 | 149 | 0.0 | 0.0 | 0.00 | 0.01 | 0.00 | 91 | 1020.3 |
| 20260506121100 | 51 | 149 | 0.0 | 0.0 | 0.00 | 0.01 | 0.00 | 91 | 1020.2 |
| 20260506121001 | 51 | 149 | 0.0 | 0.0 | 0.00 | 0.01 | 0.00 | 91 | 1020.3 |
| 20260506120601 | 51 | 149 | 0.0 | 0.0 | 0.00 | 0.01 | 0.00 | 91 | 1020.4 |
| 20260506120105 | 51 | 149 | 0.0 | 0.0 | 0.00 | 0.01 | 0.00 | 90 | 1020.3 |
| 20260506115600 | 51 | 149 | 0.0 | 0.0 | 0.00 | 0.02 | 0.00 | 91 | 1020.3 |
| 20260506115058 | 51 | 149 | 0.0 | 0.0 | 0.00 | 0.02 | 0.00 | 91 | 1020.1 |
| 20260506114606 | 51 | 149 | 0.0 | 0.0 | 0.00 | 0.02 | 0.00 | 91 | 1020.2 |
| 20260506114058 | 51 | 149 | 0.0 | 0.0 | 0.00 | 0.02 | 0.00 | 91 | 1020.1 |
| 20260506113556 | 51 | 149 | 0.0 | 0.0 | 0.00 | 0.02 | 0.00 | 91 | 1020.0 |
| 20260506113058 | 51 | 149 | 0.0 | 0.0 | 0.00 | 0.02 | 0.00 | 91 | 1020.0 |
| 20260506112556 | 51 | 149 | 0.0 | 0.0 | 0.00 | 0.02 | 0.00 | 91 | 1019.9 |
| 20260506112055 | 51 | 149 | 0.0 | 0.0 | 0.00 | 0.02 | 0.00 | 91 | 1019.9 |
| 20260506111555 | 51 | 149 | 0.0 | 0.0 | 0.00 | 0.02 | 0.00 | 91 | 1019.9 |
| 20260506111055 | 51 | 149 | 0.0 | 0.0 | 0.00 | 0.02 | 0.00 | 91 | 1019.8 |
| 20260506110555 | 51 | 149 | 0.0 | 0.0 | 0.00 | 0.02 | 0.00 | 91 | 1019.9 |
| 20260506110055 | 51 | 149 | 0.0 | 0.0 | 0.00 | 0.02 | 0.00 | 91 | 1019.8 |
| 20260506105554 | 51 | 149 | 0.0 | 0.0 | 0.00 | 0.02 | 0.00 | 91 | 1019.8 |
| 20260506105056 | 51 | 149 | 0.0 | 0.0 | 0.00 | 0.02 | 0.00 | 91 | 1019.9 |
| 20260506104600 | 51 | 149 | 0.0 | 0.0 | 0.00 | 0.02 | 0.00 | 91 | 1019.8 |
| 20260506104053 | 51 | 149 | 0.0 | 0.0 | 0.00 | 0.02 | 0.00 | 91 | 1019.8 |
| 20260506103553 | 51 | 149 | 0.0 | 0.0 | 0.00 | 0.02 | 0.00 | 91 | 1019.8 |
| 20260506103055 | 51 | 149 | 0.0 | 0.0 | 0.00 | 0.02 | 0.00 | 91 | 1019.7 |
| 20260506102551 | 51 | 149 | 0.0 | 0.0 | 0.00 | 0.02 | 0.00 | 91 | 1019.8 |
| 20260506102054 | 51 | 149 | 0.0 | 0.0 | 0.00 | 0.02 | 0.00 | 91 | 1019.7 |
| 20260506101552 | 51 | 149 | 0.0 | 0.0 | 0.00 | 0.02 | 0.00 | 92 | 1019.7 |
| 20260506101052 | 51 | 149 | 0.0 | 0.0 | 0.00 | 0.02 | 0.00 | 92 | 1019.8 |
| 20260506100551 | 51 | 149 | 0.0 | 0.0 | 0.00 | 0.02 | 0.00 | 92 | 1019.6 |
| 20260506100105 | 51 | 149 | 0.0 | 0.0 | 0.00 | 0.02 | 0.00 | 92 | 1019.8 |
| 20260506095551 | 51 | 149 | 0.0 | 0.0 | 0.00 | 0.03 | 0.00 | 92 | 1019.7 |
| 20260506095051 | 51 | 149 | 0.0 | 0.0 | 0.00 | 0.03 | 0.00 | 92 | 1019.8 |
| 20260506094600 | 51 | 149 | 0.0 | 0.0 | 0.00 | 0.03 | 0.00 | 92 | 1019.8 |
| 20260506094049 | 51 | 149 | 0.0 | 0.0 | 0.00 | 0.03 | 0.00 | 92 | 1019.8 |
| 20260506093549 | 50 | 149 | 0.0 | 0.0 | 0.00 | 0.03 | 0.00 | 92 | 1019.8 |
| 20260506093049 | 50 | 149 | 0.0 | 0.0 | 0.00 | 0.03 | 0.00 | 92 | 1019.7 |
| 20260506092548 | 50 | 149 | 0.0 | 0.0 | 0.00 | 0.03 | 0.00 | 92 | 1019.8 |
| 20260506092048 | 50 | 149 | 0.0 | 0.0 | 0.00 | 0.03 | 0.00 | 92 | 1019.8 |
| 20260506091548 | 50 | 149 | 0.0 | 0.0 | 0.00 | 0.03 | 0.00 | 91 | 1019.8 |
| 20260506091046 | 50 | 149 | 0.0 | 0.0 | 0.00 | 0.03 | 0.00 | 91 | 1019.6 |
| 20260506090546 | 50 | 149 | 0.0 | 0.0 | 0.00 | 0.03 | 0.00 | 91 | 1019.7 |
| 20260506090045 | 51 | 149 | 0.0 | 0.0 | 0.00 | 0.03 | 0.00 | 91 | 1019.6 |
| 20260506085545 | 51 | 149 | 0.0 | 0.0 | 0.00 | 0.07 | 0.00 | 91 | 1019.6 |
| 20260506085049 | 51 | 149 | 0.0 | 0.0 | 0.00 | 0.07 | 0.00 | 91 | 1019.7 |
| 20260506084549 | 51 | 149 | 0.0 | 0.0 | 0.00 | 0.07 | 0.00 | 91 | 1019.7 |
| 20260506084043 | 51 | 149 | 0.0 | 0.0 | 0.00 | 0.07 | 0.00 | 91 | 1019.7 |
| 20260506083543 | 51 | 149 | 0.0 | 0.0 | 0.00 | 0.07 | 0.00 | 91 | 1019.7 |
| 20260506083046 | 51 | 149 | 0.0 | 0.0 | 0.00 | 0.07 | 0.00 | 91 | 1019.7 |
| 20260506082542 | 51 | 149 | 0.0 | 0.0 | 0.00 | 0.07 | 0.00 | 91 | 1019.7 |
| 20260506082041 | 51 | 149 | 0.0 | 0.0 | 0.00 | 0.07 | 0.00 | 90 | 1019.7 |
| 20260506081559 | 51 | 149 | 0.0 | 0.0 | 0.00 | 0.07 | 0.00 | 90 | 1019.8 |
| 20260506081040 | 51 | 149 | 0.0 | 0.0 | 0.00 | 0.07 | 0.00 | 90 | 1019.8 |
| 20260506080542 | 51 | 149 | 0.0 | 0.0 | 0.00 | 0.07 | 0.00 | 90 | 1019.8 |
| 20260506073037 | 52 | 149 | 0.0 | 0.0 | 0.00 | 0.12 | 0.00 | 90 | 1019.5 |
| 20260506072534 | 52 | 149 | 0.0 | 0.0 | 0.00 | 0.12 | 0.00 | 90 | 1019.6 |
| 20260506072034 | 52 | 149 | 0.0 | 1.0 | 0.00 | 0.12 | 0.00 | 90 | 1019.5 |
| 20260506071531 | 52 | 149 | 0.0 | 2.0 | 0.00 | 0.12 | 0.00 | 91 | 1019.4 |
| 20260506071031 | 52 | 148 | 0.0 | 3.0 | 0.00 | 0.12 | 0.00 | 91 | 1019.5 |
| 20260506070528 | 52 | 148 | 1.0 | 3.0 | 0.00 | 0.12 | 0.00 | 91 | 1019.4 |
| 20260506062023 | 52 | 157 | 1.0 | 3.0 | 0.00 | 0.14 | 0.12 | 92 | 1019.0 |
| 20260506061523 | 52 | 157 | 0.0 | 2.0 | 0.00 | 0.14 | 0.12 | 92 | 1019.1 |
| 20260506061023 | 52 | 157 | 0.0 | 2.0 | 0.00 | 0.14 | 0.12 | 92 | 1019.1 |
| 20260506060523 | 52 | 157 | 0.0 | 2.0 | 0.00 | 0.14 | 0.12 | 92 | 1019.1 |
| 20260506051019 | 52 | 159 | 0.0 | 2.0 | 0.00 | 0.16 | 0.12 | 91 | 1018.8 |
| 20260506050518 | 52 | 159 | 0.0 | 2.0 | 0.00 | 0.16 | 0.12 | 91 | 1018.9 |
| 20260506045017 | 52 | 159 | 0.0 | 2.0 | 0.00 | 0.19 | 0.12 | 90 | 1018.7 |
| 20260506044517 | 52 | 159 | 0.0 | 2.0 | 0.00 | 0.19 | 0.12 | 90 | 1018.5 |
| 20260506044015 | 52 | 159 | 0.0 | 2.0 | 0.00 | 0.19 | 0.12 | 90 | 1018.5 |
| 20260506043516 | 52 | 159 | 0.0 | 2.0 | 0.00 | 0.19 | 0.12 | 89 | 1018.4 |
| 20260506043014 | 52 | 159 | 0.0 | 2.0 | 0.00 | 0.19 | 0.12 | 89 | 1018.3 |
| 20260506042514 | 52 | 159 | 0.0 | 2.0 | 0.00 | 0.19 | 0.12 | 88 | 1018.2 |
| 20260506042018 | 52 | 159 | 0.0 | 2.0 | 0.00 | 0.19 | 0.12 | 88 | 1018.2 |
| 20260506041512 | 52 | 159 | 0.0 | 2.0 | 0.00 | 0.19 | 0.12 | 88 | 1018.2 |
| 20260506041018 | 52 | 159 | 0.0 | 0.0 | 0.00 | 0.19 | 0.12 | 87 | 1018.1 |
| 20260506040512 | 52 | 159 | 0.0 | 0.0 | 0.00 | 0.19 | 0.12 | 87 | 1018.1 |
| 20260506040012 | 53 | 159 | 0.0 | 0.0 | 0.00 | 0.19 | 0.12 | 87 | 1018.0 |
| 20260506035511 | 53 | 159 | 0.0 | 2.0 | 0.00 | 0.19 | 0.12 | 87 | 1017.9 |
| 20260506035011 | 53 | 159 | 0.0 | 2.0 | 0.00 | 0.19 | 0.12 | 87 | 1017.8 |
| 20260506034509 | 53 | 148 | 0.0 | 2.0 | 0.00 | 0.19 | 0.12 | 87 | 1017.7 |
| 20260506034011 | 53 | 163 | 0.0 | 3.0 | 0.00 | 0.19 | 0.12 | 87 | 1017.7 |
| 20260506033514 | 53 | 163 | 0.0 | 3.0 | 0.00 | 0.19 | 0.12 | 87 | 1017.6 |
| 20260506033008 | 53 | 183 | 0.0 | 2.0 | 0.00 | 0.19 | 0.12 | 86 | 1017.6 |
| 20260506032507 | 53 | 211 | 0.0 | 2.0 | 0.00 | 0.19 | 0.12 | 86 | 1017.4 |
| 20260506032006 | 53 | 360 | 0.0 | 2.0 | 0.00 | 0.19 | 0.12 | 86 | 1017.4 |
| 20260506031509 | 54 | 230 | 0.0 | 5.0 | 0.00 | 0.19 | 0.12 | 86 | 1017.3 |
| 20260506031006 | 54 | 138 | 0.0 | 5.0 | 0.00 | 0.19 | 0.12 | 85 | 1017.3 |
| 20260506030506 | 54 | 141 | 0.0 | 2.0 | 0.00 | 0.19 | 0.12 | 86 | 1017.2 |
| 20260506030006 | 54 | 139 | 0.0 | 4.0 | 0.00 | 0.19 | 0.12 | 86 | 1017.1 |
| 20260506025506 | 54 | 360 | 0.0 | 4.0 | 0.00 | 0.19 | 0.12 | 85 | 1017.1 |
| 20260506025008 | 54 | 178 | 0.0 | 1.0 | 0.00 | 0.19 | 0.12 | 86 | 1017.0 |
| 20260506024507 | 54 | 360 | 0.0 | 2.0 | 0.00 | 0.19 | 0.12 | 85 | 1017.2 |
| 20260506024004 | 54 | 360 | 0.0 | 2.0 | 0.00 | 0.19 | 0.12 | 85 | 1017.1 |
| 20260506023505 | 54 | 360 | 0.0 | 2.0 | 0.00 | 0.19 | 0.12 | 85 | 1017.1 |
| 20260506023106 | 54 | 360 | 0.0 | 2.0 | 0.00 | 0.19 | 0.12 | 84 | 1017.1 |
| 20260506022502 | 55 | 360 | 0.0 | 3.0 | 0.00 | 0.19 | 0.12 | 84 | 1017.0 |
| 20260506022004 | 55 | 360 | 0.0 | 3.0 | 0.00 | 0.19 | 0.12 | 84 | 1016.8 |
| 20260506021502 | 55 | 360 | 0.0 | 3.0 | 0.00 | 0.19 | 0.12 | 84 | 1016.8 |
| 20260506021002 | 55 | 130 | 0.0 | 3.0 | 0.00 | 0.19 | 0.12 | 84 | 1016.8 |
| 20260506020501 | 55 | 128 | 0.0 | 3.0 | 0.00 | 0.19 | 0.12 | 83 | 1016.7 |
| 20260506020002 | 55 | 148 | 0.0 | 3.0 | 0.00 | 0.19 | 0.12 | 83 | 1016.6 |
| 20260506015503 | 55 | 360 | 1.0 | 3.0 | 0.00 | 0.19 | 0.12 | 82 | 1016.7 |
| 20260506015104 | 55 | 157 | 0.0 | 2.0 | 0.00 | 0.19 | 0.12 | 82 | 1016.6 |
| 20260506014601 | 55 | 360 | 0.0 | 3.0 | 0.00 | 0.19 | 0.12 | 83 | 1016.6 |
| 20260506014000 | 55 | 360 | 0.0 | 5.0 | 0.00 | 0.19 | 0.12 | 82 | 1016.5 |
| 20260506013600 | 55 | 360 | 1.0 | 5.0 | 0.00 | 0.19 | 0.12 | 82 | 1016.5 |
| 20260506013111 | 56 | 360 | 1.0 | 5.0 | 0.00 | 0.19 | 0.12 | 82 | 1016.5 |
| 20260506012600 | 56 | 139 | 0.0 | 4.0 | 0.00 | 0.19 | 0.12 | 83 | 1016.6 |
| 20260506012104 | 56 | 138 | 1.0 | 4.0 | 0.00 | 0.19 | 0.12 | 83 | 1016.5 |
| 20260506011602 | 56 | 138 | 0.0 | 4.0 | 0.00 | 0.19 | 0.12 | 83 | 1016.6 |
| 20260506011059 | 56 | 147 | 0.0 | 3.0 | 0.00 | 0.19 | 0.12 | 83 | 1016.6 |
| 20260506010559 | 56 | 143 | 0.0 | 3.0 | 0.00 | 0.19 | 0.12 | 83 | 1016.6 |
| 20260506010120 | 56 | 159 | 0.0 | 4.0 | 0.00 | 0.19 | 0.12 | 83 | 1016.6 |
| 20260506005600 | 56 | 178 | 0.0 | 4.0 | 0.00 | 0.19 | 0.12 | 83 | 1016.6 |
| 20260506005101 | 56 | 188 | 1.0 | 4.0 | 0.00 | 0.19 | 0.12 | 82 | 1016.5 |
| 20260506004601 | 56 | 119 | 0.0 | 1.0 | 0.00 | 0.19 | 0.12 | 84 | 1016.6 |
| 20260506004058 | 56 | 119 | 0.0 | 4.0 | 0.00 | 0.19 | 0.12 | 83 | 1016.5 |
| 20260506003558 | 56 | 141 | 0.0 | 4.0 | 0.00 | 0.19 | 0.12 | 83 | 1016.6 |
| 20260506003119 | 56 | 141 | 1.0 | 4.0 | 0.00 | 0.19 | 0.12 | 82 | 1016.5 |
| 20260506002557 | 56 | 121 | 0.0 | 3.0 | 0.00 | 0.19 | 0.12 | 83 | 1016.4 |
| 20260506002059 | 56 | 155 | 1.0 | 2.0 | 0.00 | 0.19 | 0.12 | 84 | 1016.4 |
| 20260506001603 | 56 | 142 | 0.0 | 3.0 | 0.00 | 0.19 | 0.12 | 85 | 1016.4 |
| 20260506001057 | 56 | 142 | 0.0 | 3.0 | 0.00 | 0.19 | 0.12 | 85 | 1016.3 |
| 20260506000557 | 56 | 112 | 0.0 | 2.0 | 0.00 | 0.19 | 0.12 | 84 | 1016.4 |
| 20260506000057 | 56 | 112 | 0.0 | 2.0 | 0.00 | 0.19 | 0.12 | 85 | 1016.4 |
| 20260505235556 | 56 | 111 | 0.0 | 2.0 | 0.00 | 0.19 | 0.12 | 86 | 1016.4 |
| 20260505235057 | 56 | 162 | 0.0 | 2.0 | 0.00 | 0.19 | 0.12 | 84 | 1016.4 |
| 20260505234557 | 56 | 76 | 0.0 | 2.0 | 0.00 | 0.19 | 0.12 | 85 | 1016.4 |
| 20260505234100 | 56 | 144 | 0.0 | 2.0 | 0.00 | 0.19 | 0.12 | 84 | 1016.4 |
| 20260505233556 | 56 | 148 | 0.0 | 0.0 | 0.00 | 0.19 | 0.12 | 85 | 1016.4 |
| 20260505233106 | 57 | 150 | 0.0 | 0.0 | 0.00 | 0.19 | 0.12 | 85 | 1016.4 |
| 20260505232555 | 57 | 151 | 0.0 | 0.0 | 0.00 | 0.19 | 0.12 | 86 | 1016.4 |
| 20260505232055 | 56 | 151 | 0.0 | 0.0 | 0.00 | 0.19 | 0.12 | 86 | 1016.4 |
| 20260505231555 | 56 | 153 | 0.0 | 2.0 | 0.00 | 0.19 | 0.12 | 86 | 1016.4 |
| 20260505231054 | 56 | 153 | 0.0 | 5.0 | 0.00 | 0.19 | 0.12 | 86 | 1016.4 |
| 20260505230554 | 56 | 153 | 0.0 | 5.0 | 0.00 | 0.19 | 0.12 | 85 | 1016.5 |
| 20260505230058 | 57 | 184 | 1.0 | 3.0 | 0.00 | 0.19 | 0.12 | 84 | 1016.5 |
| 20260505225554 | 57 | 132 | 0.0 | 5.0 | 0.00 | 0.19 | 0.12 | 83 | 1016.5 |
| 20260505225054 | 57 | 131 | 0.0 | 5.0 | 0.00 | 0.19 | 0.12 | 84 | 1016.5 |
| 20260505224554 | 57 | 128 | 0.0 | 3.0 | 0.00 | 0.19 | 0.12 | 84 | 1016.4 |
| 20260505224056 | 57 | 128 | 0.0 | 3.0 | 0.00 | 0.19 | 0.12 | 83 | 1016.4 |
| 20260505223552 | 57 | 132 | 1.0 | 4.0 | 0.00 | 0.19 | 0.12 | 83 | 1016.4 |
| 20260505223052 | 58 | 173 | 0.0 | 2.0 | 0.00 | 0.19 | 0.12 | 84 | 1016.4 |
| 20260505222552 | 57 | 175 | 0.0 | 5.0 | 0.00 | 0.19 | 0.12 | 84 | 1016.4 |
| 20260505222052 | 57 | 204 | 2.0 | 5.0 | 0.00 | 0.19 | 0.12 | 83 | 1016.4 |
| 20260505221554 | 57 | 134 | 0.0 | 3.0 | 0.00 | 0.19 | 0.12 | 84 | 1016.4 |
| 20260505221051 | 57 | 132 | 0.0 | 7.0 | 0.00 | 0.19 | 0.12 | 82 | 1016.4 |
| 20260505220551 | 57 | 115 | 0.0 | 7.0 | 0.00 | 0.19 | 0.12 | 83 | 1016.5 |
| 20260505220050 | 57 | 153 | 1.0 | 7.0 | 0.00 | 0.19 | 0.12 | 83 | 1016.4 |
| 20260505215552 | 57 | 113 | 0.0 | 5.0 | 0.00 | 0.19 | 0.12 | 83 | 1016.6 |
| 20260505215049 | 57 | 104 | 1.0 | 5.0 | 0.00 | 0.19 | 0.12 | 83 | 1016.6 |
| 20260505214601 | 57 | 228 | 1.0 | 5.0 | 0.00 | 0.19 | 0.12 | 84 | 1016.6 |
| 20260505214049 | 57 | 130 | 0.0 | 4.0 | 0.00 | 0.19 | 0.12 | 85 | 1016.5 |
| 20260505213547 | 57 | 138 | 2.0 | 4.0 | 0.00 | 0.19 | 0.12 | 85 | 1016.6 |
| 20260505213048 | 56 | 145 | 0.0 | 5.0 | 0.00 | 0.19 | 0.12 | 84 | 1016.7 |
| 20260505212547 | 57 | 148 | 1.0 | 5.0 | 0.00 | 0.19 | 0.12 | 84 | 1016.7 |
| 20260505212048 | 57 | 132 | 1.0 | 5.0 | 0.00 | 0.19 | 0.12 | 85 | 1016.7 |
| 20260505211548 | 56 | 225 | 1.0 | 6.0 | 0.00 | 0.19 | 0.12 | 86 | 1016.7 |
| 20260505211045 | 56 | 194 | 1.0 | 7.0 | 0.00 | 0.19 | 0.12 | 85 | 1016.7 |
| 20260505210546 | 56 | 122 | 2.0 | 7.0 | 0.00 | 0.19 | 0.12 | 85 | 1016.7 |
| 20260505210046 | 56 | 145 | 0.0 | 6.0 | 0.00 | 0.19 | 0.12 | 85 | 1016.7 |
| 20260505205544 | 56 | 193 | 2.0 | 6.0 | 0.00 | 0.19 | 0.12 | 87 | 1016.7 |
| 20260505205043 | 56 | 148 | 0.0 | 4.0 | 0.00 | 0.19 | 0.12 | 87 | 1016.7 |
| 20260505204542 | 56 | 196 | 1.0 | 5.0 | 0.00 | 0.19 | 0.12 | 88 | 1016.7 |
| 20260505204041 | 55 | 130 | 1.0 | 5.0 | 0.00 | 0.19 | 0.12 | 88 | 1016.7 |
| 20260505203541 | 55 | 179 | 0.0 | 6.0 | 0.00 | 0.19 | 0.12 | 89 | 1016.8 |
| 20260505203040 | 55 | 146 | 0.0 | 6.0 | 0.00 | 0.19 | 0.12 | 90 | 1016.6 |
| 20260505202540 | 55 | 160 | 1.0 | 4.0 | 0.00 | 0.19 | 0.12 | 90 | 1016.7 |
| 20260505202042 | 55 | 176 | 0.0 | 4.0 | 0.00 | 0.19 | 0.12 | 92 | 1016.7 |
| 20260505201549 | 55 | 165 | 1.0 | 4.0 | 0.00 | 0.19 | 0.12 | 92 | 1016.8 |
| 20260505201038 | 55 | 143 | 1.0 | 5.0 | 0.00 | 0.19 | 0.12 | 93 | 1016.8 |
| 20260505200536 | 55 | 166 | 1.0 | 3.0 | 0.00 | 0.19 | 0.12 | 94 | 1016.8 |
| 20260505200037 | 54 | 180 | 1.0 | 2.0 | 0.00 | 0.19 | 0.12 | 94 | 1016.8 |
| 20260505195536 | 54 | 197 | 0.0 | 2.0 | 0.00 | 0.19 | 0.12 | 95 | 1016.8 |
| 20260505195034 | 54 | 200 | 0.0 | 2.0 | 0.00 | 0.19 | 0.12 | 95 | 1016.9 |
| 20260505194535 | 54 | 200 | 0.0 | 2.0 | 0.00 | 0.19 | 0.12 | 95 | 1016.8 |
| 20260505194033 | 53 | 200 | 0.0 | 2.0 | 0.00 | 0.19 | 0.12 | 95 | 1016.9 |
| 20260505193532 | 53 | 164 | 0.0 | 3.0 | 0.00 | 0.19 | 0.12 | 95 | 1016.9 |
| 20260505193032 | 53 | 360 | 1.0 | 4.0 | 0.00 | 0.19 | 0.12 | 95 | 1016.9 |
| 20260505192534 | 53 | 360 | 1.0 | 4.0 | 0.00 | 0.19 | 0.12 | 95 | 1016.9 |
| 20260505192031 | 53 | 360 | 0.0 | 3.0 | 0.00 | 0.19 | 0.12 | 95 | 1016.8 |
| 20260505191533 | 53 | 360 | 0.0 | 3.0 | 0.00 | 0.19 | 0.12 | 95 | 1016.9 |
| 20260505191031 | 53 | 360 | 1.0 | 3.0 | 0.00 | 0.19 | 0.12 | 95 | 1016.9 |
| 20260505190529 | 53 | 170 | 0.0 | 5.0 | 0.00 | 0.19 | 0.12 | 95 | 1016.8 |
| 20260505190038 | 53 | 165 | 1.0 | 5.0 | 0.00 | 0.19 | 0.12 | 95 | 1016.8 |
| 20260505185530 | 53 | 139 | 0.0 | 7.0 | 0.00 | 0.19 | 0.12 | 96 | 1016.7 |
| 20260505185028 | 53 | 153 | 3.0 | 7.0 | 0.00 | 0.19 | 0.12 | 96 | 1016.4 |
| 20260505184527 | 53 | 134 | 0.0 | 2.0 | 0.00 | 0.19 | 0.12 | 96 | 1016.5 |
| 20260505184027 | 53 | 137 | 0.0 | 2.0 | 0.00 | 0.19 | 0.12 | 96 | 1016.7 |
| 20260505183526 | 53 | 137 | 0.0 | 6.0 | 0.00 | 0.19 | 0.12 | 96 | 1016.6 |
| 20260505183031 | 53 | 360 | 2.0 | 6.0 | 0.00 | 0.19 | 0.12 | 96 | 1016.5 |
| 20260505182526 | 53 | 134 | 0.0 | 4.0 | 0.00 | 0.19 | 0.12 | 96 | 1016.7 |
| 20260505182026 | 53 | 360 | 0.0 | 0.0 | 0.00 | 0.19 | 0.12 | 96 | 1016.5 |
| 20260505181531 | 53 | 149 | 0.0 | 0.0 | 0.00 | 0.19 | 0.12 | 96 | 1016.6 |
| 20260505181023 | 53 | 148 | 0.0 | 0.0 | 0.00 | 0.19 | 0.12 | 96 | 1016.6 |
| 20260505180523 | 52 | 149 | 0.0 | 0.0 | 0.00 | 0.19 | 0.12 | 96 | 1016.5 |
| 20260505180023 | 52 | 148 | 0.0 | 3.0 | 0.00 | 0.19 | 0.12 | 96 | 1016.4 |
| 20260505175522 | 52 | 148 | 1.0 | 4.0 | 0.00 | 0.19 | 0.12 | 95 | 1016.5 |
| 20260505175025 | 52 | 360 | 2.0 | 4.0 | 0.00 | 0.19 | 0.12 | 95 | 1016.2 |
| 20260505174522 | 52 | 145 | 1.0 | 3.0 | 0.00 | 0.19 | 0.12 | 96 | 1016.2 |
| 20260505174021 | 52 | 144 | 0.0 | 3.0 | 0.00 | 0.19 | 0.12 | 96 | 1016.2 |
| 20260505173520 | 52 | 142 | 0.0 | 3.0 | 0.00 | 0.19 | 0.12 | 96 | 1016.2 |
| 20260505173032 | 52 | 147 | 0.0 | 3.0 | 0.00 | 0.19 | 0.12 | 96 | 1016.1 |
| 20260505172520 | 52 | 153 | 0.0 | 4.0 | 0.00 | 0.19 | 0.12 | 96 | 1016.1 |
| 20260505172022 | 52 | 155 | 2.0 | 5.0 | 0.00 | 0.19 | 0.12 | 95 | 1016.0 |
| 20260505171525 | 52 | 157 | 2.0 | 5.0 | 0.00 | 0.19 | 0.12 | 96 | 1016.0 |
| 20260505171019 | 52 | 128 | 0.0 | 0.0 | 0.00 | 0.19 | 0.12 | 96 | 1016.1 |
| 20260505170518 | 52 | 128 | 0.0 | 0.0 | 0.00 | 0.19 | 0.12 | 96 | 1016.0 |
| 20260505170020 | 52 | 120 | 0.0 | 0.0 | 0.00 | 0.19 | 0.12 | 95 | 1016.2 |
| 20260505165518 | 52 | 117 | 0.0 | 2.0 | 0.00 | 0.19 | 0.12 | 95 | 1016.1 |
| 20260505165016 | 52 | 116 | 0.0 | 2.0 | 0.00 | 0.19 | 0.12 | 95 | 1016.1 |
| 20260505164516 | 51 | 150 | 0.0 | 2.0 | 0.00 | 0.19 | 0.12 | 95 | 1016.1 |
| 20260505164015 | 52 | 150 | 0.0 | 2.0 | 0.00 | 0.19 | 0.12 | 95 | 1016.1 |
| 20260505163514 | 52 | 150 | 0.0 | 3.0 | 0.00 | 0.19 | 0.12 | 95 | 1016.1 |
| 20260505163012 | 51 | 150 | 0.0 | 3.0 | 0.00 | 0.19 | 0.12 | 95 | 1016.1 |
| 20260505162511 | 51 | 150 | 1.0 | 3.0 | 0.00 | 0.19 | 0.12 | 95 | 1016.1 |
| 20260505162011 | 51 | 150 | 1.0 | 3.0 | 0.00 | 0.19 | 0.12 | 95 | 1016.0 |
| 20260505161511 | 51 | 149 | 0.0 | 3.0 | 0.00 | 0.19 | 0.12 | 95 | 1016.1 |
| 20260505161010 | 51 | 150 | 0.0 | 3.0 | 0.00 | 0.19 | 0.12 | 95 | 1016.0 |
| 20260505160515 | 51 | 151 | 0.0 | 3.0 | 0.00 | 0.19 | 0.12 | 95 | 1016.0 |